Time,TemperatureF,DewpointF,PressureIn,WindDirection,WindDirectionDegrees,WindSpeedMPH,WindSpeedGustMPH,Humidity,HourlyPrecipIn,Conditions,Clouds,dailyrainin,SolarRadiationWatts/m^2,SoftwareType,DateUTC
2013-03-03 00:04:00,42.5,30.0,30.05,NNW,344,3.0,7.0,61,0.00,,,0.00,0,weatherlink.com 1.10,2013-03-03 05:04:00,
2013-03-03 00:19:00,42.5,30.0,30.05,West,280,3.0,10.0,61,0.00,,,0.00,0,weatherlink.com 1.10,2013-03-03 05:19:00,
2013-03-03 00:34:00,42.4,29.0,30.05,NNW,336,0.0,7.0,60,0.00,,,0.00,0,weatherlink.com 1.10,2013-03-03 05:34:00,
2013-03-03 00:49:00,42.3,30.0,30.05,NW,310,1.0,12.0,61,0.00,,,0.00,0,weatherlink.com 1.10,2013-03-03 05:49:00,
2013-03-03 01:04:00,42.2,30.0,30.05,NNW,334,1.0,5.0,62,0.00,,,0.00,0,weatherlink.com 1.10,2013-03-03 06:04:00,
2013-03-03 01:19:00,42.0,30.0,30.04,NNW,328,3.0,5.0,62,0.00,,,0.00,0,weatherlink.com 1.10,2013-03-03 06:19:00,
2013-03-03 01:34:00,41.9,30.0,30.05,NW,322,3.0,8.0,63,0.00,,,0.00,0,weatherlink.com 1.10,2013-03-03 06:34:00,
2013-03-03 01:49:00,41.8,30.0,30.05,NE,47,3.0,9.0,63,0.00,,,0.00,0,weatherlink.com 1.10,2013-03-03 06:49:00,
2013-03-03 02:04:00,41.6,31.0,30.04,NNW,330,4.0,6.0,66,0.00,,,0.00,0,weatherlink.com 1.10,2013-03-03 07:04:00,
2013-03-03 02:19:00,41.8,30.0,30.04,NNW,337,4.0,9.0,64,0.00,,,0.00,0,weatherlink.com 1.10,2013-03-03 07:19:00,
2013-03-03 02:34:00,41.5,31.0,30.04,NW,321,2.0,10.0,66,0.00,,,0.00,0,weatherlink.com 1.10,2013-03-03 07:34:00,
2013-03-03 02:49:00,41.4,31.0,30.03,NNW,334,4.0,8.0,66,0.00,,,0.00,0,weatherlink.com 1.10,2013-03-03 07:49:00,
2013-03-03 03:04:00,41.0,31.0,30.03,West,274,2.0,7.0,68,0.00,,,0.00,0,weatherlink.com 1.10,2013-03-03 08:04:00,
2013-03-03 03:19:00,40.7,31.0,30.02,NW,319,1.0,5.0,68,0.00,,,0.00,0,weatherlink.com 1.10,2013-03-03 08:19:00,
2013-03-03 03:34:00,40.4,31.0,30.03,NNW,340,1.0,7.0,69,0.00,,,0.00,0,weatherlink.com 1.10,2013-03-03 08:34:00,
2013-03-03 03:49:00,40.5,31.0,30.04,NW,320,3.0,8.0,69,0.00,,,0.00,0,weatherlink.com 1.10,2013-03-03 08:49:00,
2013-03-03 04:04:00,40.3,31.0,30.04,NNW,345,2.0,10.0,69,0.00,,,0.00,0,weatherlink.com 1.10,2013-03-03 09:04:00,
2013-03-03 04:19:00,40.0,31.0,30.04,NW,317,4.0,11.0,69,0.00,,,0.00,0,weatherlink.com 1.10,2013-03-03 09:19:00,
2013-03-03 04:34:00,40.0,31.0,30.04,North,351,1.0,8.0,69,0.00,,,0.00,0,weatherlink.com 1.10,2013-03-03 09:34:00,
2013-03-03 04:49:00,39.7,31.0,30.04,NW,325,1.0,7.0,71,0.00,,,0.00,0,weatherlink.com 1.10,2013-03-03 09:49:00,
2013-03-03 05:04:00,39.5,31.0,30.04,NW,306,2.0,9.0,72,0.00,,,0.00,0,weatherlink.com 1.10,2013-03-03 10:04:00,
2013-03-03 05:19:00,39.5,32.0,30.05,WNW,299,2.0,9.0,73,0.00,,,0.00,0,weatherlink.com 1.10,2013-03-03 10:19:00,
2013-03-03 05:34:00,39.6,32.0,30.05,WNW,286,0.0,8.0,73,0.00,,,0.00,0,weatherlink.com 1.10,2013-03-03 10:34:00,
2013-03-03 05:49:00,39.5,32.0,30.05,NNE,24,5.0,6.0,73,0.00,,,0.00,0,weatherlink.com 1.10,2013-03-03 10:49:00,
2013-03-03 06:04:00,39.4,32.0,30.05,NW,313,2.0,7.0,74,0.00,,,0.00,0,weatherlink.com 1.10,2013-03-03 11:04:00,
2013-03-03 06:19:00,39.7,32.0,30.05,WNW,296,6.0,11.0,73,0.00,,,0.00,0,weatherlink.com 1.10,2013-03-03 11:19:00,
2013-03-03 06:34:00,39.8,32.0,30.05,NW,323,1.0,11.0,73,0.00,,,0.00,0,weatherlink.com 1.10,2013-03-03 11:34:00,
2013-03-03 06:49:00,39.6,32.0,30.06,WNW,301,1.0,9.0,73,0.00,,,0.00,0,weatherlink.com 1.10,2013-03-03 11:49:00,
2013-03-03 07:05:00,39.5,32.0,30.06,WNW,301,7.0,10.0,74,0.00,,,0.00,14,weatherlink.com 1.10,2013-03-03 12:05:00,
2013-03-03 07:20:00,39.8,32.0,30.07,NW,321,4.0,10.0,74,0.00,,,0.00,21,weatherlink.com 1.10,2013-03-03 12:20:00,
2013-03-03 07:35:00,40.0,32.0,30.08,North,2,4.0,11.0,73,0.00,,,0.00,30,weatherlink.com 1.10,2013-03-03 12:35:00,
2013-03-03 07:50:00,40.1,32.0,30.08,NW,324,4.0,12.0,72,0.00,,,0.00,42,weatherlink.com 1.10,2013-03-03 12:50:00,
2013-03-03 08:05:00,40.3,32.0,30.08,NNW,328,6.0,12.0,71,0.00,,,0.00,97,weatherlink.com 1.10,2013-03-03 13:05:00,
2013-03-03 08:20:00,40.6,32.0,30.08,NW,319,5.0,13.0,70,0.00,,,0.00,102,weatherlink.com 1.10,2013-03-03 13:20:00,
2013-03-03 08:35:00,41.0,31.0,30.07,NW,325,5.0,12.0,67,0.00,,,0.00,156,weatherlink.com 1.10,2013-03-03 13:35:00,
2013-03-03 08:50:00,41.7,31.0,30.08,NNW,342,1.0,11.0,66,0.00,,,0.00,214,weatherlink.com 1.10,2013-03-03 13:50:00,
2013-03-03 09:05:00,42.4,31.0,30.08,NW,325,10.0,12.0,64,0.00,,,0.00,496,weatherlink.com 1.10,2013-03-03 14:05:00,
2013-03-03 09:20:00,43.0,31.0,30.08,WNW,293,3.0,10.0,62,0.00,,,0.00,343,weatherlink.com 1.10,2013-03-03 14:20:00,
2013-03-03 09:35:00,43.7,30.0,30.08,ENE,63,6.0,10.0,60,0.00,,,0.00,592,weatherlink.com 1.10,2013-03-03 14:35:00,
2013-03-03 09:50:00,44.2,30.0,30.09,NNW,340,6.0,14.0,58,0.00,,,0.00,520,weatherlink.com 1.10,2013-03-03 14:50:00,
2013-03-03 10:05:00,45.1,31.0,30.09,WNW,298,7.0,14.0,58,0.00,,,0.00,352,weatherlink.com 1.10,2013-03-03 15:05:00,
2013-03-03 10:20:00,45.2,30.0,30.09,WNW,298,8.0,18.0,56,0.00,,,0.00,617,weatherlink.com 1.10,2013-03-03 15:20:00,
2013-03-03 10:35:00,45.9,31.0,30.08,WNW,294,8.0,19.0,57,0.00,,,0.00,582,weatherlink.com 1.10,2013-03-03 15:35:00,
2013-03-03 10:50:00,47.1,31.0,30.09,NNW,339,2.0,11.0,54,0.00,,,0.00,554,weatherlink.com 1.10,2013-03-03 15:50:00,
2013-03-03 11:05:00,47.4,30.0,30.08,NNW,334,6.0,15.0,52,0.00,,,0.00,452,weatherlink.com 1.10,2013-03-03 16:05:00,
2013-03-03 11:20:00,47.6,31.0,30.08,WNW,292,5.0,15.0,53,0.00,,,0.00,538,weatherlink.com 1.10,2013-03-03 16:20:00,
2013-03-03 11:35:00,47.7,31.0,30.08,WNW,301,11.0,17.0,52,0.00,,,0.00,570,weatherlink.com 1.10,2013-03-03 16:35:00,
2013-03-03 11:50:00,48.4,31.0,30.07,WNW,291,3.0,18.0,51,0.00,,,0.00,404,weatherlink.com 1.10,2013-03-03 16:50:00,
2013-03-03 12:05:00,47.6,31.0,30.07,SW,232,2.0,21.0,52,0.00,,,0.00,385,weatherlink.com 1.10,2013-03-03 17:05:00,
2013-03-03 12:20:00,48.9,31.0,30.07,WNW,282,2.0,13.0,51,0.00,,,0.00,387,weatherlink.com 1.10,2013-03-03 17:20:00,
2013-03-03 12:35:00,48.7,30.0,30.06,WSW,258,2.0,13.0,49,0.00,,,0.00,396,weatherlink.com 1.10,2013-03-03 17:35:00,
2013-03-03 12:50:00,48.4,30.0,30.05,WNW,294,2.0,17.0,50,0.00,,,0.00,461,weatherlink.com 1.10,2013-03-03 17:50:00,
2013-03-03 13:05:00,48.7,31.0,30.04,North,1,5.0,19.0,50,0.00,,,0.00,526,weatherlink.com 1.10,2013-03-03 18:05:00,
2013-03-03 13:20:00,49.4,31.0,30.04,West,272,7.0,17.0,49,0.00,,,0.00,798,weatherlink.com 1.10,2013-03-03 18:20:00,
2013-03-03 13:35:00,49.1,30.0,30.04,WNW,291,4.0,16.0,49,0.00,,,0.00,390,weatherlink.com 1.10,2013-03-03 18:35:00,
2013-03-03 13:50:00,49.5,31.0,30.03,West,280,2.0,13.0,50,0.00,,,0.00,429,weatherlink.com 1.10,2013-03-03 18:50:00,
2013-03-03 14:06:00,50.5,32.0,30.03,NW,315,2.0,12.0,49,0.00,,,0.00,441,weatherlink.com 1.10,2013-03-03 19:06:00,
2013-03-03 14:21:00,50.0,31.0,30.03,SW,226,3.0,15.0,48,0.00,,,0.00,545,weatherlink.com 1.10,2013-03-03 19:21:00,
2013-03-03 14:36:00,49.5,31.0,30.03,NW,319,3.0,11.0,49,0.00,,,0.00,294,weatherlink.com 1.10,2013-03-03 19:36:00,
2013-03-03 14:51:00,50.0,32.0,30.03,SW,215,5.0,15.0,50,0.00,,,0.00,272,weatherlink.com 1.10,2013-03-03 19:51:00,
2013-03-03 15:06:00,49.3,32.0,30.02,West,276,7.0,17.0,51,0.00,,,0.00,232,weatherlink.com 1.10,2013-03-03 20:06:00,
2013-03-03 15:21:00,48.9,31.0,30.03,WNW,288,9.0,18.0,51,0.00,,,0.00,176,weatherlink.com 1.10,2013-03-03 20:21:00,
2013-03-03 15:36:00,48.7,31.0,30.03,WNW,294,2.0,14.0,51,0.00,,,0.00,151,weatherlink.com 1.10,2013-03-03 20:36:00,
2013-03-03 15:51:00,48.9,31.0,30.03,West,267,8.0,17.0,51,0.00,,,0.00,148,weatherlink.com 1.10,2013-03-03 20:51:00,
2013-03-03 16:06:00,49.7,31.0,30.03,NNW,340,2.0,13.0,49,0.00,,,0.00,466,weatherlink.com 1.10,2013-03-03 21:06:00,
2013-03-03 16:21:00,50.3,32.0,30.03,SW,219,4.0,10.0,49,0.00,,,0.00,211,weatherlink.com 1.10,2013-03-03 21:21:00,
2013-03-03 16:36:00,50.2,32.0,30.03,WSW,245,4.0,13.0,50,0.00,,,0.00,367,weatherlink.com 1.10,2013-03-03 21:36:00,
2013-03-03 16:51:00,50.0,31.0,30.03,WNW,297,5.0,13.0,49,0.00,,,0.00,137,weatherlink.com 1.10,2013-03-03 21:51:00,
2013-03-03 17:06:00,49.2,32.0,30.03,West,268,1.0,10.0,51,0.00,,,0.00,76,weatherlink.com 1.10,2013-03-03 22:06:00,
2013-03-03 17:21:00,49.0,31.0,30.04,SSW,204,3.0,17.0,51,0.00,,,0.00,95,weatherlink.com 1.10,2013-03-03 22:21:00,
2013-03-03 17:36:00,48.8,31.0,30.04,WSW,246,1.0,14.0,51,0.00,,,0.00,35,weatherlink.com 1.10,2013-03-03 22:36:00,
2013-03-03 17:51:00,48.2,31.0,30.05,SW,231,0.0,12.0,52,0.00,,,0.00,25,weatherlink.com 1.10,2013-03-03 22:51:00,
2013-03-03 18:06:00,47.8,32.0,30.06,NNW,328,2.0,8.0,54,0.00,,,0.00,18,weatherlink.com 1.10,2013-03-03 23:06:00,
2013-03-03 18:21:00,47.2,31.0,30.06,North,9,2.0,8.0,54,0.00,,,0.00,9,weatherlink.com 1.10,2013-03-03 23:21:00,
2013-03-03 18:36:00,46.7,32.0,30.07,West,262,1.0,5.0,57,0.00,,,0.00,0,weatherlink.com 1.10,2013-03-03 23:36:00,
2013-03-03 18:51:00,46.1,32.0,30.08,West,263,2.0,6.0,58,0.00,,,0.00,0,weatherlink.com 1.10,2013-03-03 23:51:00,
2013-03-03 19:06:00,45.8,32.0,30.09,SW,234,0.0,5.0,60,0.00,,,0.00,0,weatherlink.com 1.10,2013-03-04 00:06:00,
2013-03-03 19:21:00,45.3,32.0,30.10,SW,222,1.0,4.0,61,0.00,,,0.00,0,weatherlink.com 1.10,2013-03-04 00:21:00,
2013-03-03 19:36:00,44.9,32.0,30.11,WSW,241,1.0,9.0,62,0.00,,,0.00,0,weatherlink.com 1.10,2013-03-04 00:36:00,
2013-03-03 19:51:00,44.5,32.0,30.11,WNW,292,2.0,6.0,62,0.00,,,0.00,0,weatherlink.com 1.10,2013-03-04 00:51:00,
2013-03-03 20:06:00,44.3,33.0,30.12,WNW,292,0.0,6.0,64,0.00,,,0.00,0,weatherlink.com 1.10,2013-03-04 01:06:00,
2013-03-03 20:21:00,44.1,33.0,30.13,SSW,208,1.0,9.0,64,0.00,,,0.00,0,weatherlink.com 1.10,2013-03-04 01:21:00,
2013-03-03 20:36:00,43.8,33.0,30.13,WSW,247,0.0,9.0,66,0.00,,,0.00,0,weatherlink.com 1.10,2013-03-04 01:36:00,
2013-03-03 20:51:00,43.5,33.0,30.14,NW,307,2.0,7.0,67,0.00,,,0.00,0,weatherlink.com 1.10,2013-03-04 01:51:00,
2013-03-03 21:06:00,43.3,33.0,30.15,NW,320,1.0,7.0,67,0.00,,,0.00,0,weatherlink.com 1.10,2013-03-04 02:06:00,
2013-03-03 21:21:00,43.1,34.0,30.15,WNW,301,1.0,7.0,69,0.00,,,0.00,0,weatherlink.com 1.10,2013-03-04 02:21:00,
2013-03-03 21:36:00,43.0,33.0,30.16,NW,313,0.0,8.0,69,0.00,,,0.00,0,weatherlink.com 1.10,2013-03-04 02:36:00,
2013-03-03 21:51:00,43.0,33.0,30.16,WNW,294,10.0,12.0,67,0.00,,,0.00,0,weatherlink.com 1.10,2013-03-04 02:51:00,
2013-03-03 22:06:00,42.9,32.0,30.17,WNW,301,1.0,6.0,66,0.00,,,0.00,0,weatherlink.com 1.10,2013-03-04 03:06:00,
2013-03-03 22:21:00,42.7,32.0,30.18,NW,319,3.0,8.0,67,0.00,,,0.00,0,weatherlink.com 1.10,2013-03-04 03:21:00,
2013-03-03 22:36:00,42.5,32.0,30.18,WNW,292,0.0,6.0,67,0.00,,,0.00,0,weatherlink.com 1.10,2013-03-04 03:36:00,
2013-03-03 22:51:00,42.2,32.0,30.18,WNW,292,0.0,6.0,68,0.00,,,0.00,0,weatherlink.com 1.10,2013-03-04 03:51:00,
2013-03-03 23:06:00,42.0,32.0,30.18,NW,319,0.0,3.0,69,0.00,,,0.00,0,weatherlink.com 1.10,2013-03-04 04:06:00,
2013-03-03 23:21:00,41.4,32.0,30.18,NW,315,0.0,2.0,70,0.00,,,0.00,0,weatherlink.com 1.10,2013-03-04 04:21:00,
2013-03-03 23:36:00,41.0,33.0,30.18,NW,319,0.0,2.0,72,0.00,,,0.00,0,weatherlink.com 1.10,2013-03-04 04:36:00,
2013-03-03 23:51:00,40.9,33.0,30.18,NW,307,1.0,3.0,73,0.00,,,0.00,0,weatherlink.com 1.10,2013-03-04 04:51:00,